Lumberton, NC

1:22 PM EST on February 28, 2017 (GMT -0500)
Lumberton Municipal

Weather History for KLBT - October, 2013

Change the Weather History Date:

Monday, October 21, 2013

  Actual Average Record
Temperature  
Mean Temperature 57 °F 62 °F  
Max Temperature 71 °F 74 °F 85 °F (2005)
Min Temperature 42 °F 49 °F 39 °F (2008)
Degree Days  
Heating Degree Days 8 5  
Month to date heating degree days 22 59  
Since 1 July heating degree days 22 68  
Cooling Degree Days 0 2  
Month to date cooling degree days 80 59  
Year to date cooling degree days 1847 1880  
Growing Degree Days 7 (Base 50)    
Moisture  
Dew Point 47 °F    
Average Humidity 70    
Maximum Humidity 100    
Minimum Humidity 40    
Precipitation  
Precipitation 0.00 in 0.06 in 0.02 in (2002)
Month to date precipitation 0.27 2.00  
Year to date precipitation 37.65 37.19  
Sea Level Pressure  
Sea Level Pressure 30.09 in    
Wind  
Wind Speed 1 mph (ENE)    
Max Wind Speed 9 mph    
Max Gust Speed 12 mph    
Visibility 9 miles    
Events      
T = Trace of Precipitation, MM = Missing Value Source: NWS Daily Summary

Daily Weather History Graph

Daily Weather History Graph

Search for Another Location

Airport or City:

Trip Planner

Search our weather history database for the weather conditions in past years. The results will help you decide how hot, cold, wet, or windy it might be!

Date:

Astronomy

Oct. 21, 2013 Rise Set
Actual Time 7:27 AM EDT 6:34 PM EDT
Civil Twilight 7:01 AM EDT 6:59 PM EDT
Nautical Twilight 6:32 AM EDT 7:28 PM EDT
Astronomical Twilight 6:02 AM EDT 7:58 PM EDT
Moon 8:31 PM EDT (10/21) 9:54 AM EDT (10/21)
Length of Visible Light 11h 58m
Length of Day
11h 07m
Waning Gibbous, 93% of the Moon is Illuminated
Oct 21
Waning Gibbous
Oct 26
Last Quarter
Nov 3
New
Nov 10
First Quarter
Nov 17
Full

Hourly Weather History & Observations

Time (EDT) Temp. Dew Point Humidity Pressure Visibility Wind Dir Wind Speed Gust Speed Precip Events Conditions
12:54 AM 48.0 °F 46.9 °F 96% 30.10 in 10.0 mi Calm Calm - N/A   Clear
1:54 AM 46.9 °F 46.0 °F 97% 30.11 in 4.0 mi Calm Calm - N/A   Clear
2:54 AM 46.0 °F 45.0 °F 96% 30.10 in 8.0 mi Calm Calm - N/A   Clear
3:54 AM 44.1 °F 44.1 °F 100% 30.09 in 8.0 mi Calm Calm - N/A   Clear
4:54 AM 44.1 °F 43.0 °F 96% 30.10 in 8.0 mi Calm Calm - N/A   Clear
5:54 AM 45.0 °F 44.1 °F 97% 30.11 in 10.0 mi Calm Calm - N/A   Clear
6:54 AM 45.0 °F 43.0 °F 93% 30.12 in 7.0 mi Calm Calm - N/A   Clear
7:54 AM 45.0 °F 43.0 °F 93% 30.14 in 8.0 mi Calm Calm - N/A   Clear
8:54 AM 52.0 °F 48.0 °F 86% 30.14 in 10.0 mi ENE 3.5 mph - N/A   Clear
9:54 AM 57.0 °F 48.9 °F 74% 30.15 in 10.0 mi ESE 8.1 mph - N/A   Clear
10:54 AM 61.0 °F 46.9 °F 60% 30.14 in 10.0 mi ESE 6.9 mph - N/A   Clear
11:54 AM 63.0 °F 48.0 °F 58% 30.15 in 10.0 mi Variable 3.5 mph - N/A   Clear
12:54 PM 68.0 °F 46.0 °F 45% 30.12 in 10.0 mi Variable 5.8 mph - N/A   Clear
1:54 PM 69.1 °F 46.0 °F 44% 30.09 in 10.0 mi Calm Calm - N/A   Clear
2:54 PM 70.0 °F 44.1 °F 39% 30.07 in 10.0 mi Calm Calm - N/A   Clear
3:54 PM 69.1 °F 45.0 °F 42% 30.05 in 10.0 mi Calm Calm - N/A   Clear
4:54 PM 69.1 °F 46.9 °F 45% 30.05 in 10.0 mi Calm Calm - N/A   Clear
5:54 PM 66.0 °F 50.0 °F 56% 30.04 in 10.0 mi Calm Calm - N/A   Clear
6:54 PM 59.0 °F 52.0 °F 78% 30.05 in 10.0 mi Calm Calm - N/A   Clear
7:54 PM 57.9 °F 52.0 °F 81% 30.03 in 10.0 mi Calm Calm - N/A   Clear
8:54 PM 55.0 °F 52.0 °F 89% 30.05 in 10.0 mi West 3.5 mph - N/A   Clear
9:54 PM 55.0 °F 52.0 °F 89% 30.05 in 10.0 mi Calm Calm - N/A   Clear
10:54 PM 55.9 °F 53.1 °F 90% 30.04 in 10.0 mi NNW 3.5 mph - N/A   Clear
11:54 PM 55.0 °F 53.1 °F 93% 30.01 in 10.0 mi Calm Calm - N/A   Clear